#timestamp,LO_Frequency,Hit,StdDev 
1457125215.7,286047008.4,P
1457125235.5,286047008.5,Y
1457125255.4,286046999.8,P
1457125275.2,286047000.1,N
1457125295.0,286047002.2,N
1457125295.9,286047002.2,N
1457125315.8,286047003.9,N
1457125335.6,286047001.9,N
1457125355.4,286047000.5,N
1457125375.3,286047002.2,N
1457125395.1,286047002.8,N
1457125396.0,286047002.8,N
1457125415.8,286046998.4,N
1457125435.7,286047000.5,N
1457125455.5,286046999.1,N
1457125475.3,286046995.6,N
1457125495.2,286046998.6,N
1457125515.9,286047000.2,N
1457125535.7,286046999.8,N
1457125555.5,286046997.3,N
1457125575.4,286046992.1,Y
1457125595.2,286046992.6,P
1457125615.0,286046994.6,N
1457125615.9,286046994.6,N
1457125635.8,286046992.3,N
1457125655.6,286046990.3,Y
1457125675.4,286046997.7,P
1457125695.3,286046999.2,N
1457125715.1,286047000.7,N
1457125735.8,286047000.7,N
1457125755.7,286047002.6,N
1457125775.5,286046996.6,N
1457125795.3,286046998.9,N
1457125815.2,286046997.9,N
1457125835.9,286046994.3,N
1457125855.7,286046995.7,N
1457125875.6,286046993.3,N
1457125895.4,286046992.2,N
1457125915.2,286046990.2,Y
1457125935.1,286046994.8,P
1457125936.0,286046994.8,P
1457125955.8,286046990.5,P
1457125975.6,286046993.7,N
1457125995.5,286046994.1,N
1457126015.3,286046994.5,N
1457126035.1,286046996.2,N
1457126055.8,286046995.6,N
1457126075.7,286046996.4,N
1457126095.5,286046994.6,Y
1457126115.3,286046999.8,P
1457126135.2,286047001.1,N
1457126155.0,286047000.8,N
1457126155.9,286047000.8,N
1457126175.7,286046999.2,N
1457126195.6,286046996.0,N
1457126215.4,286046995.7,N
1457126235.2,286046996.2,N
1457126255.1,286046993.3,N
1457126256.0,286046993.3,N
1457126275.8,286046994.0,N
1457126295.6,286046997.7,N
1457126315.5,286047000.1,N
1457126335.3,286047000.9,N
1457126355.1,286047000.8,N
1457126375.9,286046998.3,N
1457126395.7,286047000.7,N
1457126415.5,286047001.5,N
1457126435.3,286047003.2,N
1457126455.2,286047003.4,N
1457126475.0,286047003.0,N
1457126475.9,286047003.0,N
1457126495.7,286047004.9,N
1457126515.6,286047004.8,N
1457126535.4,286047005.7,N
1457126555.2,286047003.6,N
1457126575.1,286047002.2,N
1457126576.0,286047002.2,N
1457126595.8,286047003.3,N
1457126615.6,286047003.9,N
1457126635.5,286047002.3,N
1457126655.3,286047000.2,N
1457126675.1,286047000.8,N
1457126695.9,286046997.3,N
1457126715.7,286046999.2,N
1457126735.5,286046999.7,N
1457126755.4,286046995.2,N
1457126775.2,286046994.6,N
1457126795.0,286046993.9,N
1457126795.9,286046993.9,N
1457126815.8,286046995.8,N
1457126835.6,286046996.4,N
1457126855.4,286046991.9,N
1457126875.2,286046992.3,N
1457126895.1,286046994.6,N
1457126896.0,286046994.6,N
1457126915.8,286046992.6,N
1457126935.6,286046993.2,N
1457126955.5,286046988.7,N
1457126975.3,286046988.6,N
1457126995.1,286046988.8,N
1457127015.9,286046986.9,N
1457127035.7,286046988.5,N
1457127055.5,286046989.1,N
1457127075.4,286046985.5,N
1457127095.2,286046982.3,Y
1457127115.0,286046988.4,P
1457127115.9,286046988.4,P
1457127135.8,286046983.9,P
1457127155.6,286046986.4,Y
1457127175.4,286046999.2,P
1457127195.3,286046997.2,N
1457127215.1,286046997.4,N
1457127235.8,286046994.9,N
1457127255.7,286046997.4,N
1457127275.5,286046997.9,N
1457127295.3,286046996.7,N
1457127315.2,286046996.5,N
1457127335.9,286047000.9,N
1457127355.7,286046999.3,N
1457127375.5,286046996.8,N
1457127395.4,286046997.5,N
1457127415.2,286046993.4,N
1457127435.0,286046999.6,N
1457127435.9,286046999.6,N
1457127455.8,286046995.1,N
1457127475.6,286046993.4,N
1457127495.4,286046995.6,N
1457127515.3,286046995.5,N
1457127535.1,286046997.2,N
1457127536.0,286046997.2,N
1457127555.8,286046997.8,N
1457127575.7,286046993.4,N
1457127595.5,286046994.3,N
1457127615.3,286046993.8,N
1457127635.2,286046991.8,Y
1457127655.9,286047002.3,P
1457127675.7,286047002.8,N
1457127695.6,286047002.8,N
1457127715.4,286046999.8,N
1457127735.2,286047000.5,N
1457127755.0,286046998.1,N
1457127756.0,286046998.1,N
1457127775.8,286046997.4,N
1457127795.6,286046999.3,N
1457127815.4,286046997.0,N
1457127835.3,286046996.9,N
1457127855.1,286046996.5,N
1457127875.8,286046999.6,N
1457127895.7,286046996.2,N
1457127915.5,286046995.2,N
1457127935.3,286046997.3,N
1457127955.2,286046995.6,N
1457127975.9,286046999.4,N
1457127995.7,286046995.7,N
1457128015.6,286046993.6,N
1457128035.4,286046996.0,N
1457128055.2,286046995.8,N
1457128075.0,286046995.6,N
1457128075.9,286046995.6,N
1457128095.8,286046996.7,N
1457128115.6,286046995.6,N
1457128135.4,286046994.5,N
1457128155.3,286046994.8,N
1457128175.1,286046992.0,Y
1457128195.8,286046993.4,P
1457128215.7,286046995.9,N
1457128235.5,286046994.8,P
1457128255.3,286046995.2,Y
1457128275.2,286046998.6,P
1457128295.0,286046997.1,N
1457128295.9,286046997.1,N
1457128315.8,286046995.3,Y
1457128335.6,286046998.5,P
1457128355.4,286046999.5,N
1457128375.2,286046996.9,P
1457128395.1,286046999.4,N
1457128396.0,286046999.4,N
1457128415.8,286046998.9,N
1457128435.6,286047002.7,N
1457128455.5,286046998.8,N
1457128475.3,286046998.5,N
1457128495.1,286046998.1,N
1457128515.9,286046997.8,N
1457128535.7,286046995.0,Y
1457128555.5,286046997.1,P
1457128575.4,286047000.7,N
1457128595.2,286046998.4,N
1457128615.0,286047002.3,N
1457128615.9,286047002.3,N
1457128635.8,286047001.8,N
1457128655.6,286047000.2,N
1457128675.4,286047002.7,N
1457128695.3,286047002.7,N
1457128715.1,286047001.0,N
1457128716.0,286047001.0,N
1457128735.8,286047001.0,N
1457128755.6,286047004.0,N
1457128775.5,286047003.0,N
1457128795.3,286047003.4,N
